Location: Maiden
(35.5760°N, 81.2120°W)
Time: 02:59:09
(UTC-04:00)

Cosmos 1980 Rocket - Pass Details

Date: 02 August 2020
Orbit: 828 x 851 km, 71.0° (Epoch: 12 August)

Event Time Altitude Azimuth Distance (km) Brightness Sun altitude
Rises 23:17:26 0° 350° (N) 3,416 6.3 -28.3°
Reaches altitude 10° 23:20:16 10° 2° (N) 2,474 5.2 -28.6°
Enters shadow 23:24:36 27° 51° (NE) 1,565 3.6 -29.1°
